Wetterdaten: Freitag, 23.02.2007
Datum Zeit Temp. A. Feuchte A. Luftdruck Regen Wind Richtung Richtung Sonnenschein UV Solar Windben
23.02.2007 00:00 7,7 C 74 % 1010,8 hPa 0,0 mm 0,0 km/h (0 Bft) O-NO 67 0 min 0 UV-I 0 W/m 3,2 km/h (1 Bft)
23.02.2007 00:10 7,7 C 76 % 1010,7 hPa 0,0 mm 0,0 km/h (0 Bft) O 90 0 min 0 UV-I 0 W/m 1,6 km/h (1 Bft)
23.02.2007 00:20 7,4 C 76 % 1010,7 hPa 0,0 mm 0,0 km/h (0 Bft) N 0 0 min 0 UV-I 0 W/m 0,0 km/h (0 Bft)
23.02.2007 00:30 7,2 C 78 % 1010,7 hPa 0,0 mm 0,0 km/h (0 Bft) N 0 0 min 0 UV-I 0 W/m 0,0 km/h (0 Bft)
23.02.2007 00:40 6,9 C 79 % 1010,7 hPa 0,0 mm 0,0 km/h (0 Bft) N 0 0 min 0 UV-I 0 W/m 0,0 km/h (0 Bft)
23.02.2007 00:50 6,8 C 77 % 1010,7 hPa 0,0 mm 0,0 km/h (0 Bft) O 90 0 min 0 UV-I 0 W/m 3,2 km/h (1 Bft)
23.02.2007 01:00 7,1 C 76 % 1010,6 hPa 0,0 mm 0,0 km/h (0 Bft) O 90 0 min 0 UV-I 0 W/m 1,6 km/h (1 Bft)
23.02.2007 01:10 7,3 C 75 % 1010,5 hPa 0,0 mm 0,0 km/h (0 Bft) O-SO 112 0 min 0 UV-I 0 W/m 3,2 km/h (1 Bft)
23.02.2007 01:20 7,3 C 76 % 1010,4 hPa 0,0 mm 0,0 km/h (0 Bft) N 0 0 min 0 UV-I 0 W/m 0,0 km/h (0 Bft)
23.02.2007 01:30 7,1 C 76 % 1010,3 hPa 0,0 mm 0,0 km/h (0 Bft) O 90 0 min 0 UV-I 0 W/m 1,6 km/h (1 Bft)
23.02.2007 01:40 6,9 C 77 % 1010,2 hPa 0,0 mm 0,0 km/h (0 Bft) O 90 0 min 0 UV-I 0 W/m 1,6 km/h (1 Bft)
23.02.2007 01:50 6,7 C 78 % 1010,2 hPa 0,0 mm 0,0 km/h (0 Bft) O 90 0 min 0 UV-I 0 W/m 1,6 km/h (1 Bft)
23.02.2007 02:00 6,6 C 78 % 1010,1 hPa 0,0 mm 0,0 km/h (0 Bft) O-SO 112 0 min 0 UV-I 0 W/m 3,2 km/h (1 Bft)
23.02.2007 02:10 6,4 C 79 % 1010,0 hPa 0,0 mm 0,0 km/h (0 Bft) N 0 0 min 0 UV-I 0 W/m 0,0 km/h (0 Bft)
23.02.2007 02:20 6,4 C 79 % 1010,1 hPa 0,0 mm 0,0 km/h (0 Bft) N 0 0 min 0 UV-I 0 W/m 0,0 km/h (0 Bft)
23.02.2007 02:30 6,3 C 79 % 1010,1 hPa 0,0 mm 0,0 km/h (0 Bft) N 0 0 min 0 UV-I 0 W/m 0,0 km/h (0 Bft)
23.02.2007 02:40 6,2 C 80 % 1010,0 hPa 0,0 mm 0,0 km/h (0 Bft) N 0 0 min 0 UV-I 0 W/m 0,0 km/h (0 Bft)
23.02.2007 02:50 6,1 C 81 % 1010,0 hPa 0,0 mm 0,0 km/h (0 Bft) N 0 0 min 0 UV-I 0 W/m 0,0 km/h (0 Bft)
23.02.2007 03:00 6,1 C 80 % 1009,9 hPa 0,0 mm 0,0 km/h (0 Bft) N 0 0 min 0 UV-I 0 W/m 0,0 km/h (0 Bft)
23.02.2007 03:10 6,2 C 80 % 1009,7 hPa 0,0 mm 0,0 km/h (0 Bft) N 0 0 min 0 UV-I 0 W/m 0,0 km/h (0 Bft)
23.02.2007 03:20 6,3 C 79 % 1009,7 hPa 0,0 mm 0,0 km/h (0 Bft) N 0 0 min 0 UV-I 0 W/m 0,0 km/h (0 Bft)
23.02.2007 03:30 6,6 C 79 % 1009,6 hPa 0,0 mm 0,0 km/h (0 Bft) N 0 0 min 0 UV-I 0 W/m 0,0 km/h (0 Bft)
23.02.2007 03:40 6,6 C 79 % 1009,5 hPa 0,0 mm 0,0 km/h (0 Bft) O 90 0 min 0 UV-I 0 W/m 1,6 km/h (1 Bft)
23.02.2007 03:50 6,6 C 78 % 1009,4 hPa 0,0 mm 0,0 km/h (0 Bft) O 90 0 min 0 UV-I 0 W/m 3,2 km/h (1 Bft)
23.02.2007 04:00 6,7 C 78 % 1009,4 hPa 0,0 mm 0,0 km/h (0 Bft) O 90 0 min 0 UV-I 0 W/m 1,6 km/h (1 Bft)
23.02.2007 04:10 6,8 C 78 % 1009,5 hPa 0,0 mm 0,0 km/h (0 Bft) N 0 0 min 0 UV-I 0 W/m 0,0 km/h (0 Bft)
23.02.2007 04:20 6,6 C 79 % 1009,4 hPa 0,0 mm 0,0 km/h (0 Bft) N 0 0 min 0 UV-I 0 W/m 0,0 km/h (0 Bft)
23.02.2007 04:30 6,5 C 79 % 1009,3 hPa 0,0 mm 0,0 km/h (0 Bft) N 0 0 min 0 UV-I 0 W/m 0,0 km/h (0 Bft)
23.02.2007 04:40 6,6 C 78 % 1009,3 hPa 0,0 mm 0,0 km/h (0 Bft) N 0 0 min 0 UV-I 0 W/m 0,0 km/h (0 Bft)
23.02.2007 04:50 6,7 C 79 % 1009,2 hPa 0,0 mm 0,0 km/h (0 Bft) O 90 0 min 0 UV-I 0 W/m 1,6 km/h (1 Bft)
23.02.2007 05:00 6,9 C 78 % 1009,2 hPa 0,0 mm 0,0 km/h (0 Bft) O-SO 112 0 min 0 UV-I 0 W/m 3,2 km/h (1 Bft)
23.02.2007 05:10 7,3 C 76 % 1009,2 hPa 0,0 mm 0,0 km/h (0 Bft) O-SO 112 0 min 0 UV-I 0 W/m 3,2 km/h (1 Bft)
23.02.2007 05:20 7,4 C 76 % 1009,2 hPa 0,0 mm 0,0 km/h (0 Bft) O 90 0 min 0 UV-I 0 W/m 4,8 km/h (1 Bft)
23.02.2007 05:30 7,3 C 77 % 1009,2 hPa 0,0 mm 0,0 km/h (0 Bft) O-NO 67 0 min 0 UV-I 0 W/m 3,2 km/h (1 Bft)
23.02.2007 05:40 7,0 C 78 % 1009,2 hPa 0,0 mm 0,0 km/h (0 Bft) O-NO 67 0 min 0 UV-I 0 W/m 1,6 km/h (1 Bft)
23.02.2007 05:50 6,9 C 77 % 1009,2 hPa 0,0 mm 0,0 km/h (0 Bft) O-SO 112 0 min 0 UV-I 0 W/m 3,2 km/h (1 Bft)
23.02.2007 06:00 6,9 C 77 % 1009,2 hPa 0,0 mm 1,6 km/h (1 Bft) O 90 0 min 0 UV-I 0 W/m 6,4 km/h (2 Bft)
23.02.2007 06:10 7,0 C 76 % 1009,3 hPa 0,0 mm 1,6 km/h (1 Bft) SO 135 0 min 0 UV-I 0 W/m 4,8 km/h (1 Bft)
23.02.2007 06:20 7,0 C 76 % 1009,2 hPa 0,0 mm 0,0 km/h (0 Bft) O-SO 112 0 min 0 UV-I 0 W/m 3,2 km/h (1 Bft)
23.02.2007 06:30 6,9 C 77 % 1009,2 hPa 0,0 mm 0,0 km/h (0 Bft) O-SO 112 0 min 0 UV-I 0 W/m 3,2 km/h (1 Bft)
23.02.2007 06:40 6,9 C 77 % 1009,2 hPa 0,0 mm 0,0 km/h (0 Bft) S-SW 202 0 min 0 UV-I 0 W/m 3,2 km/h (1 Bft)
23.02.2007 06:50 6,8 C 77 % 1009,2 hPa 0,0 mm 0,0 km/h (0 Bft) N 0 0 min 0 UV-I 0 W/m 0,0 km/h (0 Bft)
23.02.2007 07:00 6,7 C 78 % 1009,3 hPa 0,0 mm 0,0 km/h (0 Bft) N 0 0 min 0 UV-I 0 W/m 0,0 km/h (0 Bft)
23.02.2007 07:10 6,7 C 78 % 1009,4 hPa 0,0 mm 0,0 km/h (0 Bft) O 90 0 min 0 UV-I 0 W/m 3,2 km/h (1 Bft)
23.02.2007 07:20 6,7 C 78 % 1009,4 hPa 0,0 mm 0,0 km/h (0 Bft) O 90 0 min 0 UV-I 0 W/m 8,0 km/h (2 Bft)
23.02.2007 07:30 6,7 C 78 % 1009,4 hPa 0,0 mm 0,0 km/h (0 Bft) SO 135 0 min 0 UV-I 0 W/m 3,2 km/h (1 Bft)
23.02.2007 07:40 6,7 C 78 % 1009,4 hPa 0,0 mm 0,0 km/h (0 Bft) S-SO 157 0 min 0 UV-I 7 W/m 1,6 km/h (1 Bft)
23.02.2007 07:50 6,8 C 78 % 1009,4 hPa 0,0 mm 0,0 km/h (0 Bft) SO 135 0 min 0 UV-I 14 W/m 1,6 km/h (1 Bft)
23.02.2007 08:00 6,8 C 78 % 1009,4 hPa 0,0 mm 0,0 km/h (0 Bft) O-SO 112 0 min 0 UV-I 16 W/m 1,6 km/h (1 Bft)
23.02.2007 08:10 6,8 C 78 % 1009,4 hPa 0,0 mm 0,0 km/h (0 Bft) SO 135 0 min 0 UV-I 19 W/m 1,6 km/h (1 Bft)
23.02.2007 08:20 6,9 C 78 % 1009,4 hPa 0,0 mm 0,0 km/h (0 Bft) S-SO 157 0 min 0 UV-I 26 W/m 1,6 km/h (1 Bft)
23.02.2007 08:30 7,0 C 78 % 1009,4 hPa 0,0 mm 0,0 km/h (0 Bft) O 90 0 min 0 UV-I 37 W/m 4,8 km/h (1 Bft)
23.02.2007 08:40 7,2 C 77 % 1009,4 hPa 0,0 mm 0,0 km/h (0 Bft) S-SO 157 0 min 0 UV-I 46 W/m 4,8 km/h (1 Bft)
23.02.2007 08:50 7,3 C 77 % 1009,3 hPa 0,0 mm 0,0 km/h (0 Bft) O-SO 112 0 min 0 UV-I 62 W/m 4,8 km/h (1 Bft)
23.02.2007 09:00 7,5 C 77 % 1009,3 hPa 0,0 mm 0,0 km/h (0 Bft) O-SO 112 0 min 0 UV-I 62 W/m 4,8 km/h (1 Bft)
23.02.2007 09:10 7,6 C 76 % 1009,3 hPa 0,0 mm 1,6 km/h (1 Bft) SO 135 0 min 0 UV-I 51 W/m 6,4 km/h (2 Bft)
23.02.2007 09:20 7,8 C 76 % 1009,4 hPa 0,0 mm 1,6 km/h (1 Bft) O-SO 112 0 min 0 UV-I 65 W/m 4,8 km/h (1 Bft)
23.02.2007 09:30 7,9 C 76 % 1009,4 hPa 0,0 mm 0,0 km/h (0 Bft) S-SW 202 0 min 0 UV-I 111 W/m 3,2 km/h (1 Bft)
23.02.2007 09:40 8,2 C 75 % 1009,3 hPa 0,0 mm 0,0 km/h (0 Bft) O 90 0 min 1 UV-I 158 W/m 4,8 km/h (1 Bft)
23.02.2007 09:50 8,6 C 74 % 1009,2 hPa 0,0 mm 1,6 km/h (1 Bft) O 90 10 min 1 UV-I 316 W/m 4,8 km/h (1 Bft)
23.02.2007 10:00 9,1 C 73 % 1009,3 hPa 0,0 mm 1,6 km/h (1 Bft) O 90 10 min 1 UV-I 383 W/m 8,0 km/h (2 Bft)
23.02.2007 10:10 9,7 C 72 % 1009,3 hPa 0,0 mm 1,6 km/h (1 Bft) O 90 10 min 1 UV-I 381 W/m 6,4 km/h (2 Bft)
23.02.2007 10:20 9,9 C 72 % 1009,3 hPa 0,0 mm 1,6 km/h (1 Bft) O-SO 112 10 min 1 UV-I 362 W/m 6,4 km/h (2 Bft)
23.02.2007 10:30 9,9 C 71 % 1009,2 hPa 0,0 mm 1,6 km/h (1 Bft) O 90 10 min 1 UV-I 294 W/m 6,4 km/h (2 Bft)
23.02.2007 10:40 10,1 C 71 % 1009,1 hPa 0,0 mm 1,6 km/h (1 Bft) O-SO 112 10 min 1 UV-I 221 W/m 8,0 km/h (2 Bft)
23.02.2007 10:50 10,1 C 71 % 1009,1 hPa 0,0 mm 1,6 km/h (1 Bft) O 90 10 min 1 UV-I 359 W/m 6,4 km/h (2 Bft)
23.02.2007 11:00 10,3 C 70 % 1009,1 hPa 0,0 mm 1,6 km/h (1 Bft) O-SO 112 10 min 1 UV-I 271 W/m 8,0 km/h (2 Bft)
23.02.2007 11:10 10,4 C 71 % 1009,1 hPa 0,0 mm 3,2 km/h (1 Bft) O-SO 112 0 min 1 UV-I 232 W/m 8,0 km/h (2 Bft)
23.02.2007 11:20 10,4 C 71 % 1009,0 hPa 0,0 mm 1,6 km/h (1 Bft) O-SO 112 0 min 1 UV-I 243 W/m 8,0 km/h (2 Bft)
23.02.2007 11:30 10,7 C 70 % 1008,8 hPa 0,0 mm 1,6 km/h (1 Bft) O-SO 112 10 min 2 UV-I 403 W/m 4,8 km/h (1 Bft)
23.02.2007 11:40 11,1 C 69 % 1008,8 hPa 0,0 mm 1,6 km/h (1 Bft) O 90 10 min 2 UV-I 445 W/m 6,4 km/h (2 Bft)
23.02.2007 11:50 11,8 C 66 % 1008,8 hPa 0,0 mm 1,6 km/h (1 Bft) SO 135 10 min 2 UV-I 494 W/m 6,4 km/h (2 Bft)
23.02.2007 12:00 11,8 C 67 % 1008,8 hPa 0,0 mm 1,6 km/h (1 Bft) O-SO 112 10 min 2 UV-I 450 W/m 4,8 km/h (1 Bft)
23.02.2007 12:10 12,0 C 67 % 1008,7 hPa 0,0 mm 1,6 km/h (1 Bft) S-SO 157 10 min 2 UV-I 478 W/m 8,0 km/h (2 Bft)
23.02.2007 12:20 12,1 C 67 % 1008,7 hPa 0,0 mm 1,6 km/h (1 Bft) S 180 10 min 2 UV-I 396 W/m 4,8 km/h (1 Bft)
23.02.2007 12:30 12,2 C 67 % 1008,7 hPa 0,0 mm 1,6 km/h (1 Bft) O 90 10 min 2 UV-I 367 W/m 4,8 km/h (1 Bft)
23.02.2007 12:40 12,0 C 68 % 1008,7 hPa 0,0 mm 1,6 km/h (1 Bft) S-SO 157 0 min 1 UV-I 192 W/m 6,4 km/h (2 Bft)
23.02.2007 12:50 11,8 C 68 % 1008,6 hPa 0,0 mm 1,6 km/h (1 Bft) O 90 0 min 1 UV-I 176 W/m 4,8 km/h (1 Bft)
23.02.2007 13:00 11,8 C 68 % 1008,5 hPa 0,0 mm 1,6 km/h (1 Bft) O 90 0 min 1 UV-I 141 W/m 6,4 km/h (2 Bft)
23.02.2007 13:10 11,9 C 68 % 1008,5 hPa 0,0 mm 1,6 km/h (1 Bft) O 90 10 min 1 UV-I 276 W/m 6,4 km/h (2 Bft)
23.02.2007 13:20 12,2 C 68 % 1008,3 hPa 0,0 mm 1,6 km/h (1 Bft) O-NO 67 10 min 1 UV-I 292 W/m 6,4 km/h (2 Bft)
23.02.2007 13:30 12,4 C 66 % 1008,3 hPa 0,0 mm 1,6 km/h (1 Bft) O 90 0 min 1 UV-I 202 W/m 4,8 km/h (1 Bft)
23.02.2007 13:40 12,6 C 66 % 1008,1 hPa 0,0 mm 0,0 km/h (0 Bft) O 90 10 min 1 UV-I 302 W/m 3,2 km/h (1 Bft)
23.02.2007 13:50 12,8 C 66 % 1008,1 hPa 0,0 mm 0,0 km/h (0 Bft) O 90 0 min 1 UV-I 237 W/m 3,2 km/h (1 Bft)
23.02.2007 14:00 12,9 C 65 % 1008,0 hPa 0,0 mm 0,0 km/h (0 Bft) O 90 10 min 1 UV-I 304 W/m 4,8 km/h (1 Bft)
23.02.2007 14:10 13,2 C 63 % 1007,9 hPa 0,0 mm 0,0 km/h (0 Bft) SW 225 10 min 1 UV-I 299 W/m 3,2 km/h (1 Bft)
23.02.2007 14:20 13,3 C 62 % 1007,8 hPa 0,0 mm 0,0 km/h (0 Bft) SW 225 10 min 1 UV-I 274 W/m 3,2 km/h (1 Bft)
23.02.2007 14:30 13,3 C 63 % 1007,7 hPa 0,0 mm 0,0 km/h (0 Bft) S-SO 157 10 min 1 UV-I 227 W/m 1,6 km/h (1 Bft)
23.02.2007 14:40 13,4 C 62 % 1007,6 hPa 0,0 mm 1,6 km/h (1 Bft) W-SW 247 10 min 1 UV-I 260 W/m 6,4 km/h (2 Bft)
23.02.2007 14:50 13,6 C 57 % 1007,5 hPa 0,0 mm 0,0 km/h (0 Bft) O-NO 67 10 min 1 UV-I 292 W/m 6,4 km/h (2 Bft)
23.02.2007 15:00 13,9 C 55 % 1007,5 hPa 0,0 mm 3,2 km/h (1 Bft) W-SW 247 10 min 1 UV-I 299 W/m 9,7 km/h (2 Bft)
23.02.2007 15:10 14,0 C 55 % 1007,4 hPa 0,0 mm 3,2 km/h (1 Bft) W-SW 247 10 min 1 UV-I 315 W/m 9,7 km/h (2 Bft)
23.02.2007 15:20 14,1 C 53 % 1007,3 hPa 0,0 mm 3,2 km/h (1 Bft) W-SW 247 10 min 1 UV-I 302 W/m 9,7 km/h (2 Bft)
23.02.2007 15:30 13,9 C 54 % 1007,3 hPa 0,0 mm 3,2 km/h (1 Bft) W-SW 247 10 min 1 UV-I 276 W/m 9,7 km/h (2 Bft)
23.02.2007 15:40 13,9 C 54 % 1007,3 hPa 0,0 mm 1,6 km/h (1 Bft) W-SW 247 10 min 1 UV-I 265 W/m 8,0 km/h (2 Bft)
23.02.2007 15:50 13,9 C 54 % 1007,3 hPa 0,0 mm 1,6 km/h (1 Bft) SW 225 10 min 1 UV-I 218 W/m 6,4 km/h (2 Bft)
23.02.2007 16:00 13,7 C 55 % 1007,3 hPa 0,0 mm 1,6 km/h (1 Bft) SO 135 10 min 1 UV-I 155 W/m 6,4 km/h (2 Bft)
23.02.2007 16:10 13,4 C 56 % 1007,2 hPa 0,0 mm 1,6 km/h (1 Bft) S 180 0 min 0 UV-I 98 W/m 4,8 km/h (1 Bft)
23.02.2007 16:20 13,3 C 56 % 1007,1 hPa 0,0 mm 1,6 km/h (1 Bft) SO 135 10 min 0 UV-I 120 W/m 4,8 km/h (1 Bft)
23.02.2007 16:30 13,3 C 56 % 1007,1 hPa 0,0 mm 0,0 km/h (0 Bft) O 90 10 min 0 UV-I 114 W/m 3,2 km/h (1 Bft)
23.02.2007 16:40 13,3 C 57 % 1007,1 hPa 0,0 mm 0,0 km/h (0 Bft) W 270 10 min 0 UV-I 102 W/m 4,8 km/h (1 Bft)
23.02.2007 16:50 13,2 C 59 % 1007,1 hPa 0,0 mm 0,0 km/h (0 Bft) W 270 0 min 0 UV-I 72 W/m 3,2 km/h (1 Bft)
23.02.2007 17:00 12,8 C 64 % 1007,1 hPa 0,0 mm 1,6 km/h (1 Bft) SO 135 10 min 0 UV-I 81 W/m 8,0 km/h (2 Bft)
23.02.2007 17:10 12,5 C 65 % 1007,0 hPa 0,0 mm 3,2 km/h (1 Bft) S-SO 157 0 min 0 UV-I 51 W/m 11,3 km/h (2 Bft)
23.02.2007 17:20 12,2 C 66 % 1007,1 hPa 0,0 mm 1,6 km/h (1 Bft) O-SO 112 0 min 0 UV-I 39 W/m 4,8 km/h (1 Bft)
23.02.2007 17:30 12,1 C 67 % 1007,1 hPa 0,0 mm 1,6 km/h (1 Bft) SO 135 10 min 0 UV-I 30 W/m 8,0 km/h (2 Bft)
23.02.2007 17:40 11,9 C 67 % 1007,1 hPa 0,0 mm 1,6 km/h (1 Bft) SO 135 10 min 0 UV-I 19 W/m 8,0 km/h (2 Bft)
23.02.2007 17:50 11,8 C 68 % 1007,2 hPa 0,0 mm 1,6 km/h (1 Bft) S 180 0 min 0 UV-I 0 W/m 11,3 km/h (2 Bft)
23.02.2007 18:00 11,7 C 68 % 1007,2 hPa 0,0 mm 1,6 km/h (1 Bft) O-SO 112 0 min 0 UV-I 0 W/m 9,7 km/h (2 Bft)
23.02.2007 18:10 11,5 C 69 % 1007,2 hPa 0,0 mm 1,6 km/h (1 Bft) SO 135 0 min 0 UV-I 0 W/m 6,4 km/h (2 Bft)
23.02.2007 18:20 11,3 C 69 % 1007,2 hPa 0,0 mm 1,6 km/h (1 Bft) S-SO 157 0 min 0 UV-I 0 W/m 8,0 km/h (2 Bft)
23.02.2007 18:30 11,3 C 69 % 1007,3 hPa 0,0 mm 1,6 km/h (1 Bft) O 90 0 min 0 UV-I 0 W/m 4,8 km/h (1 Bft)
23.02.2007 18:40 11,4 C 69 % 1007,2 hPa 0,0 mm 3,2 km/h (1 Bft) SO 135 0 min 0 UV-I 0 W/m 8,0 km/h (2 Bft)
23.02.2007 18:50 11,3 C 70 % 1007,1 hPa 0,0 mm 1,6 km/h (1 Bft) SO 135 0 min 0 UV-I 0 W/m 6,4 km/h (2 Bft)
23.02.2007 19:00 11,2 C 69 % 1007,1 hPa 0,0 mm 1,6 km/h (1 Bft) S-SO 157 0 min 0 UV-I 0 W/m 6,4 km/h (2 Bft)
23.02.2007 19:10 11,2 C 69 % 1007,0 hPa 0,0 mm 1,6 km/h (1 Bft) O 90 0 min 0 UV-I 0 W/m 6,4 km/h (2 Bft)
23.02.2007 19:20 11,2 C 69 % 1006,9 hPa 0,0 mm 0,0 km/h (0 Bft) SO 135 0 min 0 UV-I 0 W/m 4,8 km/h (1 Bft)
23.02.2007 19:30 11,2 C 68 % 1007,0 hPa 0,0 mm 1,6 km/h (1 Bft) O 90 0 min 0 UV-I 0 W/m 8,0 km/h (2 Bft)
23.02.2007 19:40 11,3 C 68 % 1006,9 hPa 0,0 mm 1,6 km/h (1 Bft) S-SO 157 0 min 0 UV-I 0 W/m 9,7 km/h (2 Bft)
23.02.2007 19:50 11,3 C 68 % 1006,9 hPa 0,0 mm 1,6 km/h (1 Bft) SO 135 0 min 0 UV-I 0 W/m 4,8 km/h (1 Bft)
23.02.2007 20:00 11,2 C 69 % 1006,9 hPa 0,0 mm 1,6 km/h (1 Bft) S-SO 157 0 min 0 UV-I 0 W/m 17,7 km/h (3 Bft)
23.02.2007 20:05 11,2 C 69 % 1006,8 hPa 0,0 mm 2,9 km/h (1 Bft) S-SO 163 0 min 0 UV-I 0 W/m 3,2 km/h (1 Bft)
23.02.2007 20:10 11,1 C 69 % 1006,7 hPa 0,0 mm 1,8 km/h (1 Bft) SO 128 0 min 0 UV-I 0 W/m 9,7 km/h (2 Bft)
23.02.2007 20:15 11,1 C 69 % 1006,6 hPa 0,0 mm 2,4 km/h (1 Bft) SO 133 0 min 0 UV-I 0 W/m 9,7 km/h (2 Bft)
23.02.2007 20:20 11,1 C 69 % 1006,6 hPa 0,0 mm 1,9 km/h (1 Bft) SO 132 0 min 0 UV-I 0 W/m 8,0 km/h (2 Bft)
23.02.2007 20:25 11,1 C 69 % 1006,6 hPa 0,0 mm 2,5 km/h (1 Bft) O-SO 120 0 min 0 UV-I 0 W/m 8,0 km/h (2 Bft)
23.02.2007 20:30 11,1 C 69 % 1006,6 hPa 0,0 mm 3,2 km/h (1 Bft) SO 137 0 min 0 UV-I 0 W/m 8,0 km/h (2 Bft)
23.02.2007 20:35 11,1 C 68 % 1006,5 hPa 0,0 mm 3,3 km/h (1 Bft) S-SW 198 0 min 0 UV-I 0 W/m 9,7 km/h (2 Bft)
23.02.2007 20:40 11,1 C 68 % 1006,5 hPa 0,0 mm 2,1 km/h (1 Bft) N 9 0 min 0 UV-I 0 W/m 9,7 km/h (2 Bft)
23.02.2007 20:50 11,0 C 68 % 1006,4 hPa 0,0 mm 3,2 km/h (1 Bft) SO 135 0 min 0 UV-I 0 W/m 11,3 km/h (2 Bft)
23.02.2007 20:55 10,8 C 68 % 1006,3 hPa 0,0 mm 2,6 km/h (1 Bft) O 86 0 min 0 UV-I 0 W/m 8,0 km/h (2 Bft)
23.02.2007 21:00 10,8 C 68 % 1006,3 hPa 0,0 mm 3,4 km/h (1 Bft) SO 130 0 min 0 UV-I 0 W/m 14,5 km/h (3 Bft)
23.02.2007 21:05 10,8 C 68 % 1006,3 hPa 0,0 mm 3,0 km/h (1 Bft) S 188 0 min 0 UV-I 0 W/m 9,7 km/h (2 Bft)
23.02.2007 21:10 10,7 C 69 % 1006,3 hPa 0,0 mm 3,0 km/h (1 Bft) SO 142 0 min 0 UV-I 0 W/m 9,7 km/h (2 Bft)
23.02.2007 21:20 10,7 C 69 % 1006,2 hPa 0,0 mm 3,2 km/h (1 Bft) SO 135 0 min 0 UV-I 0 W/m 11,3 km/h (2 Bft)
23.02.2007 21:30 10,6 C 69 % 1006,2 hPa 0,0 mm 3,2 km/h (1 Bft) O-SO 112 0 min 0 UV-I 0 W/m 11,3 km/h (2 Bft)
23.02.2007 21:40 10,5 C 69 % 1006,1 hPa 0,0 mm 1,6 km/h (1 Bft) O-SO 112 0 min 0 UV-I 0 W/m 9,7 km/h (2 Bft)
23.02.2007 21:50 10,4 C 69 % 1006,2 hPa 0,0 mm 1,6 km/h (1 Bft) O 90 0 min 0 UV-I 0 W/m 16,1 km/h (3 Bft)
23.02.2007 22:00 10,3 C 69 % 1006,2 hPa 0,0 mm 1,6 km/h (1 Bft) S-SO 157 0 min 0 UV-I 0 W/m 4,8 km/h (1 Bft)
23.02.2007 22:10 10,2 C 69 % 1006,0 hPa 0,0 mm 1,6 km/h (1 Bft) O-SO 112 0 min 0 UV-I 0 W/m 8,0 km/h (2 Bft)
23.02.2007 22:20 10,2 C 70 % 1006,0 hPa 0,0 mm 1,6 km/h (1 Bft) O-SO 112 0 min 0 UV-I 0 W/m 6,4 km/h (2 Bft)
23.02.2007 22:30 10,2 C 70 % 1006,2 hPa 0,0 mm 3,2 km/h (1 Bft) SO 135 0 min 0 UV-I 0 W/m 14,5 km/h (3 Bft)
23.02.2007 22:40 10,2 C 69 % 1006,2 hPa 0,0 mm 1,6 km/h (1 Bft) S-SO 157 0 min 0 UV-I 0 W/m 11,3 km/h (2 Bft)
23.02.2007 22:50 10,1 C 70 % 1006,1 hPa 0,0 mm 1,6 km/h (1 Bft) O-SO 112 0 min 0 UV-I 0 W/m 8,0 km/h (2 Bft)
23.02.2007 23:00 10,1 C 71 % 1006,0 hPa 0,0 mm 1,6 km/h (1 Bft) O-SO 112 0 min 0 UV-I 0 W/m 9,7 km/h (2 Bft)
23.02.2007 23:10 10,0 C 71 % 1006,1 hPa 0,0 mm 1,6 km/h (1 Bft) SO 135 0 min 0 UV-I 0 W/m 6,4 km/h (2 Bft)
23.02.2007 23:20 10,1 C 70 % 1006,2 hPa 0,0 mm 1,6 km/h (1 Bft) SO 135 0 min 0 UV-I 0 W/m 8,0 km/h (2 Bft)
23.02.2007 23:30 10,1 C 76 % 1006,1 hPa 0,0 mm 1,6 km/h (1 Bft) S 180 0 min 0 UV-I 0 W/m 6,4 km/h (2 Bft)
23.02.2007 23:40 9,7 C 79 % 1005,9 hPa 0,1 mm 1,6 km/h (1 Bft) O-SO 112 0 min 0 UV-I 0 W/m 4,8 km/h (1 Bft)
23.02.2007 23:50 9,3 C 80 % 1005,8 hPa 0,0 mm 0,0 km/h (0 Bft) O 90 0 min 0 UV-I 0 W/m 3,2 km/h (1 Bft)
_ Min-Zeit 02:50 15:20 23:50 - 00:00 - - - - - 00:20
Minimum _ 6,0 C 53 % 1005,8 hPa - 0,0 km/h (0 Bft) - - - - - 0,0 km/h (0 Bft)
_ Max-Zeit 15:20 02:50 00:00 23:40 21:00 - - 09:50 11:30 11:50 20:00
Maximum _ 14,2 C 81 % 1010,8 hPa 0,1 mm 3,4 km/h
SO (1 Bft)
- - 10 min 2 UV-I 494 W/m 17,7 km/h
N (3 Bft)
Durchschnitt _ 9,7 C 71 % 1008,3 hPa #0,1 mm 1,1 km/h (1 Bft) SO - #6:10 h 1 UV-I 210 W/m 5,3 km/h (1 Bft)